Weather in Aix-les-Bains

France     45°40′45″N   5°54′37″E
temp.,
°C
wind,
m/s
gust,
m/s
humid.,
%
clouds,
%
prec.,
mm/h
press.,
hPa
HPBL,
m
9 may, sun
sun923:00+10se327726 0.0 101634
02:00+8se32735 0.0 101534
05:00+8se327189 0.0 101435
08:00+10se237092 0.0 101374
11:00+20s1348100 0.0 1010636
14:00+24sw1541100 0.0 10082146
17:00+23s124988 0.0 10061307
20:00+17se3375100 0.0 100759
10 may, mon
mon1023:00+12se457661 0.0 1008104
02:00+10se4477100 0.0 100891
05:00+10se3476100 0.0 100984
08:00+11sse2286100 0.2 100958
11:00+11s1293100 2.3 1011256
14:00+12ssw1195100 5.1 1010279
17:00+12sse2495100 3.8 1009416
20:00+10sse1297100 7.6 100986
11 may, tue
tue1123:00+8ssw1299100 0.5 101146
02:00+9w11100100 1.3 1011116
05:00+9nw11100100 1.4 1009153
08:00+8nne23100100 4.1 1009189
11:00+8n1299100 4.8 1009204
14:00+8ne129996 7.9 1009194
17:00+8wsw2398100 6.2 1011305
20:00+7wsw1299100 12.6 1014182
12 may, wed
wed1223:00+6wsw1199100 4.3 1017152
02:00+6wsw0096100 4.9 101624
05:00+5nnw0197100 1.3 1015146
08:00+5ne0198100 2.6 1015238
11:00+6nnw1297100 1.0 1014501
14:00+8nnw128966 1.6 1014594
17:00+10n017991 0.9 1012719
20:00+8nnw009129 2.0 101214
13 may, thu
thu1323:00+5ese119442 0.1 101410
02:00+4ese119516 0.1 101410
05:00+3ese119592 0.0 101410
08:00+6ne119336 0.0 101298
11:00+11nw236617 0.1 1011989
14:00+14nw1249100 0.3 10091881
17:00+11se11687 0.3 1009604
20:00+10w118124 0.4 100912